Location: Rowland
(34.5359°N, 79.2929°W)
Time: 17:42:34
(UTC+00:00)

A-11 Canister half - Pass Details

Date: 08 October 2022
Orbit: 1515 x 1684 km, 47.2° (Epoch: 06 December)

Event Time Altitude Azimuth Distance (km) Brightness Sun altitude
Rises 03:45:15 0° 290° (WNW) 4,797 12.0 -55.9°
Reaches altitude 10° 03:48:44 10° 298° (WNW) 3,787 11.4 -56.4°
Enters shadow 03:51:44 21° 310° (NW) 3,006 10.7 -56.7°
